Theta_e
307 307 306 305 304 305 305 305 304 305 306 306 308 307 308 307 308 307 306 305 306 306 305 305 305 306 306 305 305 305 306 305 307 305 304 306 305 305 305 305 305 306
307 308 308 306 305 306 305 306 305 306 306 306 307 307 306 307 307 306 305 307 307 305 304 305 305 304 304 304 304 304 303 303 304 308 304 303 304 304 304 304 305 305
307 307 306 305 304 304 304 305 306 305 306 306 305 306 306 307 307 304 305 305 305 304 304 304 304 304 303 303 303 303 302 302 303 303 306 303 304 304 304 304 304 304
306 307 308 306 305 304 304 304 304 304 304 304 305 306 307 307 306 305 306 310 304 304 303 303 303 303 302 302 302 302 302 302 302 303 302 303 304 304 303 305 304 303
307 306 307 307 306 305 305 304 304 304 304 305 304 305 307 307 304 305 306 303 304 303 303 302 301 302 302 301 301 301 303 301 301 301 301 302 302 303 304 304 302 301
307 307 307 307 306 305 304 304 304 305 304 303 304 306 306 306 305 305 305 303 303 303 302 301 301 300 300 300 300 300 301 300 300 301 301 301 301 302 302 302 301 301
307 306 306 306 305 305 305 304 304 305 304 305 305 305 305 304 305 305 304 304 302 303 301 301 300 299 300 300 300 299 299 300 300 300 300 300 302 301 301 301 301 300
308 307 306 305 305 304 305 304 304 304 304 304 305 304 305 305 304 304 303 302 302 300 299 299 299 299 299 300 300 299 299 300 300 299 299 299 299 299 300 300 300 299
307 307 307 305 304 304 304 304 304 304 305 304 304 303 304 304 303 303 301 301 300 299 299 299 299 298 299 299 298 298 298 298 299 298 298 298 298 298 298 299 299 300
308 308 306 306 305 305 304 304 304 304 305 304 304 303 303 302 302 301 300 300 300 299 298 298 298 299 298 298 299 298 298 298 297 297 297 298 298 298 298 298 299 299
308 307 307 306 305 305 304 304 304 304 304 303 302 302 302 301 301 301 300 299 299 298 298 297 298 298 298 297 297 298 298 297 297 297 297 297 297 298 299 299 299 299
308 306 306 306 306 305 304 304 304 304 304 303 303 302 301 301 300 300 301 299 298 297 297 297 297 297 296 297 296 297 297 297 297 297 298 297 297 298 298 299 299 298
308 307 307 307 306 305 305 304 304 304 303 303 303 302 301 300 300 300 300 298 297 297 297 297 296 296 296 295 295 295 295 296 296 296 296 296 297 297 297 297 297 297
308 307 307 306 306 305 304 304 304 303 303 303 302 301 301 300 299 299 298 298 297 297 297 297 296 295 294 294 295 295 296 296 295 296 296 295 295 296 296 296 296 297
307 306 306 305 305 305 304 304 303 303 303 302 302 302 301 300 299 298 297 296 296 296 296 296 296 295 295 295 296 295 294 295 294 294 294 294 294 294 295 295 296 296
307 307 306 305 305 304 304 304 304 303 302 302 301 300 299 298 297 297 297 296 295 295 296 296 295 295 299 295 296 297 295 294 294 294 294 294 294 294 294 294 295 295
306 306 305 305 304 304 304 304 303 303 302 301 300 299 297 298 297 296 295 295 295 295 294 294 294 296 295 293 293 293 294 294 293 293 293 293 293 292 292 293 294 294
305 305 304 304 304 304 303 303 302 301 300 299 298 297 297 296 295 295 294 295 294 293 293 294 294 296 293 292 292 292 293 295 293 292 292 292 292 292 292 292 292 293
305 304 304 303 304 304 303 303 302 301 300 299 298 297 296 295 295 294 294 293 293 293 293 294 293 294 292 292 292 291 291 292 292 291 291 291 291 291 291 291 291 292
305 304 303 303 304 304 303 301 301 300 299 298 297 296 296 295 294 294 293 292 292 292 292 292 291 293 292 292 291 291 290 291 291 290 290 290 291 291 291 291 291 291
304 304 303 303 303 302 301 300 299 297 297 297 296 295 295 294 293 292 292 293 292 291 291 290 291 292 291 291 290 290 290 290 290 290 290 290 290 290 290 290 290 291
304 303 302 302 302 301 300 299 298 297 297 297 296 295 294 294 293 293 293 291 291 290 290 288 289 291 290 290 290 290 290 291 290 289 289 289 289 290 290 290 290 290
304 303 302 302 302 301 300 299 298 297 296 296 294 293 293 293 292 293 293 291 290 289 288 287 287 290 290 290 290 289 290 289 289 289 288 288 288 289 289 290 290 290
303 303 302 302 302 301 300 298 297 296 296 296 295 293 293 292 292 291 290 291 290 288 288 287 287 288 290 290 290 289 290 289 289 288 287 287 288 288 289 289 289 291
304 304 303 302 301 299 298 297 297 296 296 296 295 294 293 292 292 290 289 289 289 289 292 288 286 288 290 289 290 289 291 290 288 287 286 287 287 287 288 288 288 290
304 304 303 303 300 298 298 298 297 296 295 295 294 294 292 291 291 290 289 289 289 289 290 290 287 287 290 289 290 290 290 291 289 287 286 286 287 287 287 288 288 289
Wind_Speed
8 7 8 7 7 6 8 7 6 7 6 6 7 6 7 5 5 5 5 5 5 6 5 5 5 5 5 6 6 6 5 5 5 4 5 5 5 5 5 6 6 5
9 8 6 6 5 5 5 7 8 8 8 7 7 7 5 6 5 6 6 5 4 5 5 5 5 6 5 6 6 6 5 5 5 3 5 6 4 4 4 4 4 4
7 8 8 9 9 8 8 6 6 7 7 7 6 7 7 5 7 5 6 6 6 5 5 5 5 5 6 6 5 5 5 5 5 3 4 4 3 4 3 2 3 4
9 10 10 10 8 9 7 7 5 5 3 5 6 6 7 6 6 7 6 6 6 5 5 5 6 5 5 6 5 5 5 5 4 4 4 3 3 3 4 3 3 4
9 9 8 8 7 7 7 8 8 7 7 6 4 4 5 6 6 6 6 5 6 5 5 5 5 6 5 5 5 5 4 4 4 5 5 5 4 3 3 3 4 4
4 4 6 7 7 8 8 8 8 8 7 6 7 5 5 6 6 6 6 6 5 6 6 5 6 5 5 6 6 5 4 4 3 4 5 4 4 4 3 3 3 3
5 5 6 5 5 7 8 8 7 7 8 7 6 6 6 7 7 7 6 6 6 6 6 6 6 6 5 6 5 5 4 4 4 3 3 2 2 4 4 5 5 5
7 7 6 5 6 7 8 7 7 7 7 7 8 7 8 8 8 7 6 7 6 6 6 6 6 6 5 6 6 5 4 3 3 2 2 2 2 3 3 3 4 5
4 6 6 7 8 7 8 8 7 7 7 9 8 8 6 8 8 8 7 6 6 6 5 5 5 5 5 6 5 5 3 1 1 1 1 1 2 3 3 3 4 4
12 11 10 10 10 10 9 8 8 8 8 8 8 8 8 6 8 8 8 7 6 5 5 5 5 4 5 5 5 3 2 1 1 0 1 1 2 3 4 4 4 5
11 9 12 12 12 10 11 10 10 9 8 9 9 8 7 8 6 7 7 7 7 6 6 5 5 5 5 4 3 3 3 2 1 1 2 2 3 3 3 4 4 4
12 9 11 13 13 12 12 11 11 10 10 9 10 11 9 8 9 6 7 7 7 6 6 6 5 5 4 3 2 1 1 1 2 2 3 3 4 4 5 5 5 5
12 13 13 12 12 12 10 10 10 11 11 11 9 11 11 9 8 8 5 7 7 7 7 6 5 3 2 1 1 1 2 2 3 4 4 4 4 5 5 6 6 6
11 10 9 8 5 3 2 1 2 7 9 10 10 11 11 11 11 9 7 7 7 7 6 5 5 4 2 1 2 3 3 4 4 4 5 5 5 6 6 6 7 7
8 7 7 7 8 9 11 11 10 7 8 10 10 10 8 10 10 10 10 8 6 7 7 6 6 4 3 2 0 2 2 4 4 4 5 5 5 6 6 6 7 7
8 8 9 9 9 11 12 11 10 10 10 10 9 9 9 9 9 9 9 9 8 7 7 6 5 4 3 3 1 0 2 3 3 4 5 5 6 6 6 7 7 7
6 8 8 9 8 8 9 12 12 10 9 9 8 8 9 8 8 9 7 7 8 8 7 6 5 4 4 1 2 2 1 3 3 5 5 5 6 6 7 6 6 7
7 7 7 7 8 10 10 9 9 9 7 7 8 9 8 8 8 8 8 7 7 7 7 6 5 5 5 3 4 4 3 3 4 4 5 5 6 7 6 6 7 6
6 8 8 9 11 12 10 10 10 12 13 11 10 10 10 11 10 10 9 8 9 9 7 6 5 6 6 6 6 5 5 4 4 4 5 6 6 7 7 6 6 7
6 7 9 9 8 6 7 7 7 7 9 9 9 8 9 10 11 10 9 9 8 8 8 6 5 7 9 7 6 6 6 4 4 5 5 6 7 7 6 7 7 7
6 7 6 6 6 7 6 7 8 9 7 6 7 8 9 10 10 9 8 8 8 7 8 6 5 8 9 7 6 6 6 3 4 4 5 6 7 7 7 7 8 7
7 6 7 7 8 10 11 12 12 12 12 11 10 9 8 8 6 8 9 8 7 8 7 7 6 8 8 7 6 6 5 3 4 5 5 6 7 7 7 6 6 7
6 7 8 9 9 10 11 12 13 11 9 7 9 8 9 9 9 7 7 8 7 6 7 6 6 7 7 6 5 6 3 4 4 5 5 6 7 7 7 6 6 7
6 7 8 9 10 11 10 8 8 10 11 9 11 10 9 8 7 6 4 5 6 6 7 7 6 6 7 6 6 6 5 5 5 5 6 7 7 6 6 6 8 15
7 8 9 9 10 11 11 12 11 11 10 9 9 9 9 8 7 8 6 4 6 7 7 6 5 5 6 7 7 7 6 4 5 5 6 7 7 6 6 6 7 9
8 9 9 10 10 9 8 10 10 9 9 8 7 7 7 6 5 6 6 8 7 4 5 5 5 5 5 7 7 8 9 6 5 5 7 7 6 6 6 5 6 7
Wind_Direction
174 181 186 186 192 190 175 170 177 169 177 172 168 176 172 178 159 146 135 125 122 116 118 110 105 97 91 80 74 72 72 70 68 75 70 62 53 48 38 31 34 30
185 183 189 184 181 190 191 182 175 177 178 183 181 159 165 154 169 149 145 134 121 124 131 123 110 112 105 93 91 90 74 67 54 31 55 54 56 57 44 37 35 17
183 183 186 185 186 190 187 190 180 183 176 189 167 158 161 165 158 158 148 141 134 133 122 113 105 104 104 101 98 88 87 82 70 38 62 44 26 36 26 39 40 22
195 192 192 194 186 183 179 175 184 179 158 149 186 175 160 162 153 152 152 141 134 128 122 110 113 105 93 92 83 63 60 64 62 49 37 33 36 21 354 353 26 357
201 201 203 197 191 177 171 181 182 179 178 183 159 155 147 148 146 147 144 139 133 132 124 118 104 101 104 92 91 83 61 60 38 40 40 16 357 21 346 23 360 346
267 236 215 201 191 176 181 192 188 177 171 161 178 167 162 154 151 151 150 143 144 140 140 131 116 115 118 113 104 102 105 78 70 71 51 17 345 344 341 349 352 338
232 236 228 219 202 194 191 195 185 179 177 172 148 168 155 156 156 155 152 151 152 157 150 144 131 134 142 123 105 99 100 104 98 95 68 38 4 331 330 332 332 330
208 196 213 215 212 205 201 192 184 180 169 151 167 168 162 159 155 151 149 150 149 146 140 134 137 138 147 113 105 97 86 103 94 85 86 10 49 316 313 307 313 312
230 231 216 204 203 209 206 195 186 171 166 163 164 161 164 157 153 150 149 144 139 144 134 132 131 127 119 106 108 113 114 127 139 129 122 338 357 307 296 301 302 286
210 191 192 206 207 201 199 194 182 175 169 165 161 155 152 151 145 145 142 140 136 132 128 128 128 126 110 109 126 137 151 190 217 165 158 237 277 300 299 301 298 296
216 198 196 197 205 202 197 184 178 170 168 161 152 153 147 140 140 140 138 139 142 144 141 139 143 134 124 122 138 161 173 187 205 213 236 265 266 270 285 288 287 288
209 200 203 203 201 199 194 185 173 168 165 163 158 151 150 149 147 153 148 148 142 146 144 144 141 136 141 159 170 122 129 206 234 247 268 277 282 279 276 270 274 273
208 208 207 206 204 202 189 178 174 169 162 162 163 151 149 148 150 147 150 142 147 139 142 148 145 118 83 58 26 15 309 276 312 317 305 295 278 277 272 269 269 271
211 212 210 207 192 137 105 178 196 175 166 156 151 153 154 153 152 148 149 143 148 146 138 120 104 96 97 70 7 326 321 328 327 317 305 298 293 284 281 277 274 272
204 200 197 185 167 163 170 179 184 184 169 162 162 157 152 148 143 139 137 132 124 123 119 119 122 124 119 145 228 322 360 319 308 297 289 284 281 274 272 270 271 269
201 193 192 191 184 184 187 175 174 175 170 165 157 149 143 140 138 139 137 137 130 124 122 117 112 129 132 117 141 197 261 269 281 280 281 284 287 289 281 273 269 269
202 202 192 193 188 182 181 184 176 170 165 149 141 139 136 134 127 125 126 132 131 131 125 125 137 144 135 177 250 254 214 247 258 281 281 279 278 279 283 282 279 271
200 191 186 178 166 183 185 171 147 127 129 140 139 129 126 120 121 128 130 128 126 127 133 142 144 157 168 208 243 260 261 249 250 259 266 268 270 272 274 281 283 284
195 188 185 182 188 189 179 168 164 159 156 150 150 144 136 135 137 134 138 140 140 143 145 151 149 174 190 207 233 251 263 255 247 248 259 267 274 272 277 282 285 288
201 191 191 193 189 169 158 159 161 154 139 138 135 139 137 133 136 141 145 151 156 150 150 153 163 191 197 209 224 244 257 256 249 258 263 265 272 275 281 286 287 289
203 197 187 167 152 139 127 122 122 114 112 115 129 137 139 142 144 145 156 160 158 151 149 164 185 197 195 206 224 239 259 267 258 258 263 268 268 270 273 277 282 283
202 184 174 163 154 150 150 150 150 151 154 157 147 145 140 134 136 145 156 162 163 157 155 172 203 205 202 209 225 245 263 264 261 261 263 263 268 268 271 270 273 275
196 179 169 166 161 163 165 161 154 148 140 136 135 146 144 149 157 165 158 156 168 171 166 181 197 211 203 214 231 250 261 256 255 253 253 260 264 266 267 269 271 272
194 179 168 164 168 163 157 159 147 137 142 148 145 151 153 151 145 131 142 156 169 187 188 182 206 217 204 214 229 243 238 242 251 251 260 263 267 261 260 259 260 270
191 179 170 167 158 160 158 155 155 147 143 146 146 145 147 141 136 140 158 194 212 202 197 190 204 223 215 218 230 244 247 243 247 249 268 267 271 276 255 255 256 260
191 177 170 164 152 148 150 147 138 129 134 137 131 124 133 137 132 135 166 210 210 202 212 201 206 239 232 227 231 246 250 247 241 254 267 281 281 279 287 261 256 261